Location: Poughquag
(41.6090°N, 73.6820°W)
Time: 14:10:20
(UTC-04:00)

Vanguard 2 - Pass Details

Date: 30 May 2020
Orbit: 552 x 2938 km, 32.9° (Epoch: 05 July)

Event Time Altitude Azimuth Distance (km) Brightness Sun altitude
Rises 19:43:34 0° 234° (SW) 6,143 12.6 5.4°
Reaches altitude 10° 19:48:30 10° 228° (SW) 4,785 11.9 4.6°
Maximum altitude 19:59:31 37° 167° (SSE) 2,278 9.7 2.8°
Drops below altitude 10° 20:06:34 10° 103° (ESE) 3,057 10.0 1.6°
Sets 20:09:01 0° 94° (E) 3,757 10.5 1.2°
